EW9996 Weather Reports


time (UTC)temp
C
wind
direction
speed
KPH
gust
KPH
rain 1hr
cm
rain 24hr
cm
rain mn
cm
humidity
%
barometer
mb
20260504044553 6 0 0.0 0.0 0.00 0.00 0.00 67 1012.8
20260504043052 6 0 0.0 0.0 0.00 0.00 0.00 65 1012.7
20260504041549 6 0 0.0 0.0 0.00 0.00 0.00 63 1012.8
20260504034557 7 0 0.0 0.0 0.00 0.00 0.00 59 1012.7
20260504033124 7 0 0.0 0.0 0.00 0.00 0.00 57 1012.7
20260504031549 8 0 0.0 0.0 0.00 0.00 0.00 56 1012.8
20260504030048 8 0 0.0 0.0 0.00 0.00 0.00 54 1012.7
20260504024546 8 0 0.0 0.0 0.00 0.00 0.00 54 1012.7
20260504023102 8 0 0.0 0.0 0.00 0.00 0.00 52 1012.8
20260504021551 9 0 0.0 0.0 0.00 0.00 0.00 51 1012.7
20260504020051 10 0 0.0 0.0 0.00 0.00 0.00 49 1012.7
20260504014549 10 0 0.0 0.0 0.00 0.00 0.00 49 1012.6
20260504013054 10 0 0.0 0.0 0.00 0.00 0.00 47 1012.5
20260504011552 10 0 0.0 0.0 0.00 0.00 0.00 47 1012.4
20260504010104 10 0 0.0 0.0 0.00 0.00 0.00 46 1012.3
20260504004601 11 0 0.0 0.0 0.00 0.00 0.00 44 1012.3
20260504003048 11 0 0.0 0.0 0.00 0.00 0.00 44 1012.2
20260504001551 11 0 0.0 0.0 0.00 0.00 0.00 42 1012.2
20260504000053 12 0 0.0 0.0 0.00 0.00 0.00 40 1012.0
20260503234552 12 0 0.0 0.0 0.00 0.00 0.00 38 1012.1
20260503233046 13 0 0.0 0.0 0.00 0.00 0.00 38 1012.1
20260503231555 13 0 0.0 0.0 0.00 0.00 0.00 37 1012.1
20260503230057 14 0 0.0 0.0 0.00 0.00 0.00 38 1012.0
20260503224552 14 0 0.0 0.0 0.00 0.00 0.00 35 1011.8
20260503223058 14 0 0.0 0.0 0.00 0.00 0.00 37 1011.9
20260503221554 15 0 0.0 0.0 0.00 0.00 0.00 35 1011.9
20260503220053 14 0 0.0 0.0 0.00 0.00 0.00 36 1012.0
20260503214548 13 0 0.0 0.0 0.00 0.00 0.00 38 1012.0
20260503213103 13 0 0.0 0.0 0.00 0.00 0.00 36 1012.1
20260503211548 15 0 0.0 1.6 0.00 0.00 0.00 36 1012.2
20260503210057 13 0 0.0 0.0 0.00 0.00 0.00 36 1012.2
20260503204553 14 0 0.0 0.0 0.00 0.00 0.00 36 1012.2
20260503203047 14 0 0.0 0.0 0.00 0.00 0.00 34 1012.1
20260503201552 15 0 0.0 0.0 0.00 0.00 0.00 37 1012.5
20260503200057 14 0 0.0 1.6 0.00 0.00 0.00 37 1012.6
20260503194547 14 0 0.0 0.0 0.00 0.00 0.00 38 1012.7
20260503193054 14 0 0.0 0.0 0.00 0.00 0.00 37 1013.1
20260503191547 13 0 0.0 0.0 0.00 0.00 0.00 36 1013.2
20260503190048 14 0 0.0 0.0 0.00 0.00 0.00 36 1013.2
20260503184555 13 0 0.0 1.6 0.00 0.00 0.00 39 1013.2
20260503183100 13 0 0.0 14.5 0.00 0.00 0.00 37 1013.4
20260503181550 13 0 0.0 0.0 0.00 0.00 0.00 38 1013.5
20260503180048 12 0 0.0 0.0 0.00 0.00 0.00 39 1013.6
20260503174547 12 0 0.0 1.6 0.00 0.00 0.00 40 1013.9
20260503173113 12 0 0.0 0.0 0.00 0.00 0.00 42 1014.1
20260503171552 12 0 0.0 0.0 0.00 0.00 0.00 41 1014.1
20260503120109 2 0 0.0 0.0 0.00 0.00 0.00 78 1015.2
20260503081549 1 0 0.0 0.0 0.00 0.00 0.00 77 1013.9
20260503071551 2 0 0.0 0.0 0.00 0.00 0.00 74 1013.6
20260503070104 2 0 0.0 0.0 0.00 0.00 0.00 74 1013.4
20260503054607 2 0 0.0 0.0 0.00 0.00 0.00 74 1013.5
20260503053053 3 0 0.0 0.0 0.00 0.00 0.00 72 1013.7
20260503051554 3 0 0.0 0.0 0.00 0.00 0.00 71 1013.6
20260503050054 3 0 0.0 0.0 0.00 0.00 0.00 69 1013.7